Terminal Aerodrome Forecast
Issued by NWS Billings, MT

Home | Current Version | Previous Version | Text Only | Print | Product List | Glossary On
Versions: 1 2 3 4 5 6 7 8 9 10 11 12 13 14 15 16 17 18 19 20 21 22 23
000
FTUS45 KBYZ 220536
TAFBIL
TAF
KBIL 220536Z 2206/2306 28018KT P6SM FEW090 SCT120
     FM220900 25011KT P6SM SCT120
     FM221700 26012G18KT P6SM FEW120
     FM230000 24010KT P6SM SKC=

USA.gov is the U.S. government's official web portal to all federal, state and local government web resources and services.